DW4465 Weather Reports


time (UTC)temp
F
wind
direction
speed
knots
gust
knots
rain 1hr
in
rain 24hr
in
rain mn
in
humidity
%
barometer
mb
20260901114552 62 0 0.0 0.0 0.00 0.00 0.00 86 1014.0
20260901113050 62 0 0.0 0.0 0.00 0.00 0.00 87 1014.1
20260901111552 62 0 0.0 0.0 0.00 0.00 0.00 86 1014.2
20260901110048 62 0 0.0 0.0 0.00 0.00 0.00 86 1014.3
20260901104553 63 0 0.0 0.0 0.00 0.00 0.00 86 1014.3
20260901103052 63 0 0.0 0.0 0.00 0.00 0.00 86 1014.3
20260901101552 64 0 0.0 0.0 0.00 0.00 0.00 86 1014.4
20260901100047 64 0 0.0 0.0 0.00 0.00 0.00 86 1014.3
20260901094559 64 0 0.0 0.9 0.00 0.00 0.00 86 1014.4
20260901093124 64 0 0.0 0.9 0.00 0.00 0.00 86 1014.5
20260901091600 65 0 0.0 0.9 0.00 0.00 0.00 85 1014.3
20260901090056 65 0 0.0 0.9 0.00 0.00 0.00 85 1014.3
20260901084557 65 0 0.0 0.9 0.00 0.00 0.00 85 1014.3
20260901083049 65 0 0.0 0.0 0.00 0.00 0.00 84 1014.4
20260901081546 65 0 0.0 0.0 0.00 0.00 0.00 84 1014.6
20260901080049 65 0 0.0 0.0 0.00 0.00 0.00 84 1014.5
20260901074545 66 0 0.0 0.0 0.00 0.00 0.00 84 1014.7
20260901073050 66 0 0.0 0.9 0.00 0.00 0.00 83 1014.7
20260901071548 66 0 0.0 0.9 0.00 0.00 0.00 83 1014.6
20260901070055 67 0 0.0 0.0 0.00 0.00 0.00 82 1014.7
20260901064554 67 0 0.0 0.0 0.00 0.00 0.00 82 1014.6
20260901063048 67 0 0.0 0.0 0.00 0.00 0.00 82 1014.3
20260901061548 68 0 0.0 0.9 0.00 0.00 0.00 82 1014.2
20260901060058 68 0 0.0 0.9 0.00 0.00 0.00 81 1014.2
20260901054553 68 0 0.0 1.7 0.00 0.00 0.00 81 1014.2
20260901053105 68 0 0.0 0.9 0.00 0.00 0.00 80 1014.1
20260901051544 68 236 0.0 0.9 0.00 0.00 0.00 79 1014.0
20260901050052 69 0 0.0 0.9 0.00 0.00 0.00 79 1013.8
20260901044552 69 0 0.0 1.7 0.00 0.00 0.00 78 1013.8
20260901043115 69 265 0.0 1.7 0.00 0.00 0.00 78 1013.6
20260901041557 70 243 0.0 2.6 0.00 0.00 0.00 77 1013.6
20260901040053 70 0 0.0 3.5 0.00 0.00 0.00 77 1013.3
20260901034601 70 297 0.0 2.6 0.00 0.00 0.00 76 1013.1
20260901033059 71 0 0.0 3.5 0.00 0.00 0.00 75 1013.0
20260901031545 71 0 0.0 3.5 0.00 0.00 0.00 74 1012.8
20260901030050 71 0 0.9 3.5 0.00 0.00 0.00 74 1012.5
20260901024554 72 279 0.9 4.3 0.00 0.00 0.00 72 1012.5
20260901023048 73 17 1.7 5.2 0.00 0.00 0.00 71 1012.2
20260901021545 74 302 2.6 5.2 0.00 0.00 0.00 69 1012.3
20260901020043 75 313 1.7 6.1 0.00 0.00 0.00 67 1012.3
20260901014550 75 0 0.0 3.5 0.00 0.00 0.00 65 1012.2
20260901013047 76 5 2.6 7.8 0.00 0.00 0.00 63 1012.3
20260901011554 78 324 1.7 7.0 0.00 0.00 0.00 62 1012.1
20260901010100 80 329 1.7 6.1 0.00 0.00 0.00 60 1012.2
20260901004552 81 287 1.7 6.1 0.00 0.00 0.00 58 1012.2
20260901003055 82 307 0.9 7.8 0.00 0.00 0.00 57 1012.2
20260901001545 81 199 3.5 7.8 0.00 0.00 0.00 54 1012.2
20260901000055 80 209 5.2 10.4 0.00 0.00 0.00 54 1012.4
20260831234549 81 173 6.1 13.9 0.00 0.00 0.00 56 1012.3
20260831233049 82 172 5.2 11.3 0.00 0.00 0.00 52 1012.4
20260831231546 82 197 5.2 10.4 0.00 0.00 0.00 51 1012.3
20260831224550 83 165 2.6 9.6 0.00 0.00 0.00 51 1012.4
20260831223048 82 193 4.3 8.7 0.00 0.00 0.00 56 1012.5
20260831221547 82 169 4.3 9.6 0.00 0.00 0.00 56 1012.8
20260831220054 82 169 4.3 8.7 0.00 0.00 0.00 59 1012.9
20260831214549 82 198 3.5 7.8 0.00 0.00 0.00 58 1013.0
20260831213048 82 196 4.3 9.6 0.00 0.00 0.00 60 1013.3
20260831211554 82 198 4.3 7.8 0.00 0.00 0.00 61 1013.4
20260831210049 82 154 5.2 9.6 0.00 0.00 0.00 61 1013.4
20260831204555 82 202 2.6 8.7 0.00 0.00 0.00 61 1013.4
20260831203059 81 185 1.7 9.6 0.00 0.00 0.00 63 1013.4
20260831201547 82 216 1.7 8.7 0.00 0.00 0.00 63 1013.6
20260831200051 82 151 3.5 7.8 0.00 0.00 0.00 63 1013.6
20260831194549 82 191 3.5 7.8 0.00 0.00 0.00 64 1013.6
20260831193051 82 223 2.6 9.6 0.00 0.00 0.00 65 1013.8
20260831191547 82 180 3.5 8.7 0.00 0.00 0.00 63 1013.8
20260831190056 82 203 2.6 8.7 0.00 0.00 0.00 63 1013.9
20260831184551 82 176 1.7 5.2 0.00 0.00 0.00 63 1014.1
20260831183046 81 198 0.9 7.0 0.00 0.00 0.00 64 1014.0
20260831181554 81 185 1.7 7.8 0.00 0.00 0.00 66 1014.1
20260831180044 81 156 2.6 7.8 0.00 0.00 0.00 65 1013.9
20260831174552 81 167 1.7 4.3 0.00 0.00 0.00 65 1014.0
20260831173057 79 194 1.7 6.1 0.00 0.00 0.00 68 1014.0
20260831171544 78 212 0.9 3.5 0.00 0.00 0.00 71 1013.9
20260831170052 77 142 1.7 4.3 0.00 0.00 0.00 75 1013.8
20260831164549 75 333 0.0 2.6 0.00 0.00 0.00 78 1013.8
20260831163048 74 0 0.0 2.6 0.00 0.00 0.00 81 1013.7
20260831161603 73 187 0.9 3.5 0.00 0.00 0.00 83 1013.7
20260831160117 72 196 1.7 3.5 0.00 0.00 0.00 84 1013.7
20260831154618 72 186 0.0 2.6 0.00 0.00 0.00 85 1013.6
20260831153123 71 215 0.0 1.7 0.00 0.00 0.00 86 1013.6
20260831151558 70 0 0.0 0.9 0.00 0.00 0.00 86 1013.4
20260831150053 69 0 0.0 0.9 0.00 0.00 0.00 86 1013.5
20260831144549 68 0 0.0 0.9 0.00 0.00 0.00 86 1013.3
20260831143050 68 0 0.0 0.0 0.00 0.00 0.00 86 1013.2
20260831141557 67 0 0.0 0.9 0.00 0.00 0.00 85 1012.9
20260831140052 67 0 0.0 0.9 0.00 0.00 0.00 85 1012.9
20260831134548 66 0 0.0 0.0 0.00 0.00 0.00 85 1012.7
20260831133047 66 0 0.0 0.0 0.00 0.00 0.00 84 1012.6
20260831131550 67 0 0.0 0.0 0.00 0.00 0.00 84 1012.4
20260831130059 67 0 0.0 0.0 0.00 0.00 0.00 84 1012.4
20260831124553 67 0 0.0 0.0 0.00 0.00 0.00 84 1012.2
20260831123051 67 0 0.0 0.0 0.00 0.00 0.00 83 1012.1
20260831121549 67 0 0.0 0.0 0.00 0.00 0.00 83 1012.2
20260831120139 66 0 0.0 0.0 0.00 0.00 0.00 82 1012.1